National Weather Service United States Department of Commerce

Latest Hourly Weather Roundup

TOPSWRTT 000
TTAA00 KICT 062303

Wichita AWIPS Roundup
National Weather Service Wichita KS
500 PM CST MON FEB 06 2023

....Central Kansas....
  
CITY           SKY/WX    TMP DP  RH WIND       PRES   REMARKS
RUSSELL        SUNNY     50  32  50 NW20G30   29.82R                  
SALINA         CLEAR     54  31  41 NW24      29.76R                  
GREAT BEND     SUNNY     51  32  48 NW22      29.83R                  
ELLSWORTH      CLEAR     52  32  46 NW16G22   29.81R                  
LYONS          FAIR      54  30  40 NW20G25   29.80R                  
MCPHERSON      CLEAR     57  29  34 W17       29.77R                  
HAYS           SUNNY     49  31  49 NW17        N/A                   

....South Central Kansas....
  
CITY           SKY/WX    TMP DP  RH WIND       PRES   REMARKS
HUTCHINSON     CLEAR     58  30  34 NW18G28   29.76R                  
NEWTON         PTCLDY    61  33  35 W21       29.75R                  
KINGMAN        SUNNY     57  28  33 W16G22    29.80R                  
WICHITA (ICT)  MOCLDY    62  33  33 SW10      29.74R                  
JABARA ARPT    MOCLDY    64  32  30 SW13G23   29.74R                  
BEECH ARPT     MOCLDY    63  32  31 SW9       29.74R                  
MCCONNELL AFB  MOCLDY    63  34  33 SW14      29.71R                  
BENTON         NOT AVBL                                               
EL DORADO      FAIR      64  36  34 SW10G18   29.73R                  
AUGUSTA        MOCLDY    63  27  25 SW8       29.74R                  
WELLINGTON     MOCLDY    65  34  31 SW6       29.76R                  
WINFIELD       PTCLDY    66  43  43 SW15      29.76R                  
 
....Southeast Kansas....
  
CITY           SKY/WX    TMP DP  RH WIND       PRES   REMARKS
EUREKA         PTCLDY    65  42  42 SW21      29.73R                  
IOLA             N/A    N/A N/A N/A MISG        N/A                   
CHANUTE        PTCLDY    63  51  65 S22G35    29.76R                  
PARSONS        CLOUDY    62  50  64 S17G31    29.78S                  
COFFEYVILLE    CLOUDY    63  52  67 S20G32    29.76F                  
INDEPENDENCE   CLOUDY    64  51  64 S17G24    29.77R                  
FORT SCOTT     MOCLDY    62  50  63 SW32G39   29.76R                  
PITTSBURG      CLOUDY    62  53  72 S20G28    29.77S                  

....Western Kansas....
  
CITY           SKY/WX    TMP DP  RH WIND       PRES   REMARKS
GOODLAND       SUNNY     38  30  73 NW21      29.88R WCI  28          
HILL CITY      SUNNY     46  32  58 NW17G28   29.84R                  
LIBERAL        SUNNY     53  21  28 N29G35    29.85R                  
GARDEN CITY    SUNNY     49  31  49 N20       29.87R                  
DODGE CITY     SUNNY     51  32  48 N16G28    29.86R                  
PRATT          SUNNY     55  30  38 NW21G29   29.82R                  
MEDICINE LODGE   N/A     60  30  32 NW17G25   29.78R                  

....Northeast Kansas....
  
CITY           SKY/WX    TMP DP  RH WIND       PRES   REMARKS
CONCORDIA      CLEAR     47  31  53 NW20      29.75R                  
TOPEKA         CLEAR     69  39  33 SW13G36   29.65R                  
MANHATTAN      CLEAR     58  33  39 W21G31    29.70R                  
LAWRENCE       CLEAR     68  45  43 S21G35    29.66R                  
OLATHE         PTCLDY    64  49  57 S22G36    29.68R                  
EMPORIA        PTCLDY    65  39  38 SW17G25   29.70R                  

....Oklahoma....
  
CITY           SKY/WX    TMP DP  RH WIND       PRES   REMARKS
GAGE           MOSUNNY   61  23  23 N20G31    29.81R                  
PONCA CITY     SUNNY     69  44  40 SW16G22   29.74R                  
BARTLESVILLE   MOCLDY    65  52  62 S12       29.78S                  
TULSA          MOCLDY    66  54  65 S16G28    29.79R                  
OKLAHOMA CITY  PTSUNNY   70  50  49 S12       29.78S                  

Note: "fair" indicates few or no clouds below 12,000 feet with no
significant weather and/or obstructions to visibility.